FW5908 Weather Reports


Display with metric or nautical units.
time (UTC)temp
F
wind
direction
speed
MPH
gust
MPH
rain 1hr
in
rain 24hr
in
rain mn
in
humidity
%
barometer
mb
20260505024606 57 132 3.0 8.0 0.00 0.00 0.00 45 1008.0
20260505023606 58 69 1.0 9.0 0.00 0.00 0.00 45 1007.7
20260505022607 58 318 5.0 8.0 0.00 0.00 0.00 44 1007.6
20260505021606 59 331 5.0 8.0 0.00 0.00 0.00 44 1007.9
20260505020606 60 309 2.0 10.0 0.00 0.00 0.00 43 1007.7
20260505015606 61 24 1.0 9.0 0.00 0.00 0.00 42 1007.5
20260505014606 62 63 4.0 10.0 0.00 0.00 0.00 41 1006.9
20260505013606 62 349 2.0 8.0 0.00 0.00 0.00 39 1006.9
20260505012606 63 265 4.0 9.0 0.00 0.00 0.00 38 1006.8
20260505011606 64 97 3.0 9.0 0.00 0.00 0.00 37 1006.5
20260505010606 65 15 2.0 6.0 0.00 0.00 0.00 37 1006.2
20260505005607 67 50 0.0 10.0 0.00 0.00 0.00 37 1006.2
20260505004606 68 67 0.0 4.0 0.00 0.00 0.00 38 1005.7
20260505003606 68 50 0.0 4.0 0.00 0.00 0.00 37 1005.5
20260505002606 69 13 1.0 4.0 0.00 0.00 0.00 36 1005.5
20260505001606 70 82 2.0 6.0 0.00 0.00 0.00 35 1005.5
20260505000606 71 34 0.0 8.0 0.00 0.00 0.00 34 1005.5
20260504235606 72 74 1.0 9.0 0.00 0.00 0.00 33 1005.3
20260504234606 72 327 2.0 4.0 0.00 0.00 0.00 33 1005.2
20260504233606 73 317 1.0 8.0 0.00 0.00 0.00 32 1005.0
20260504232606 74 139 1.0 6.0 0.00 0.00 0.00 31 1005.0
20260504231606 75 119 3.0 11.0 0.00 0.00 0.00 33 1004.8
20260504230606 75 23 1.0 8.0 0.00 0.00 0.00 32 1004.5
20260504225606 76 24 1.0 5.0 0.00 0.00 0.00 31 1004.2
20260504224606 77 44 1.0 6.0 0.00 0.00 0.00 31 1004.1
20260504223606 77 99 1.0 4.0 0.00 0.00 0.00 34 1003.7
20260504222606 77 19 1.0 6.0 0.00 0.00 0.00 32 1003.8
20260504221606 78 360 0.0 8.0 0.00 0.00 0.00 32 1003.6
20260504220606 78 360 3.0 3.0 0.00 0.00 0.00 34 1003.4
20260504215606 79 51 2.0 6.0 0.00 0.00 0.00 33 1003.3
20260504214606 79 275 0.0 6.0 0.00 0.00 0.00 32 1003.3
20260504213606 80 153 1.0 4.0 0.00 0.00 0.00 33 1003.2
20260504212606 80 360 3.0 6.0 0.00 0.00 0.00 33 1003.1
20260504211605 81 134 3.0 4.0 0.00 0.00 0.00 35 1002.9
20260504210606 81 334 0.0 5.0 0.00 0.00 0.00 34 1002.9
20260504205606 82 325 0.0 4.0 0.00 0.00 0.00 36 1002.7
20260504204606 83 360 1.0 9.0 0.00 0.00 0.00 35 1002.7
20260504203605 83 319 1.0 5.0 0.00 0.00 0.00 34 1002.6
20260504202605 84 344 1.0 4.0 0.00 0.00 0.00 33 1002.7
20260504201605 84 40 1.0 7.0 0.00 0.00 0.00 33 1002.7
20260504200605 84 292 1.0 11.0 0.00 0.00 0.00 30 1002.6
20260504195606 85 44 2.0 6.0 0.00 0.00 0.00 32 1002.6
20260504194606 84 16 1.0 4.0 0.00 0.00 0.00 32 1002.5
20260504193605 84 262 3.0 6.0 0.00 0.00 0.00 29 1002.6
20260504192605 84 103 1.0 7.0 0.00 0.00 0.00 33 1002.5
20260504191605 84 292 5.0 8.0 0.00 0.00 0.00 30 1002.3
20260504190605 84 299 3.0 8.0 0.00 0.00 0.00 29 1002.5
20260504185605 83 275 3.0 7.0 0.00 0.00 0.00 29 1002.4
20260504184605 83 291 4.0 8.0 0.00 0.00 0.00 32 1002.4
20260504183605 82 22 4.0 9.0 0.00 0.00 0.00 31 1002.5
20260504182605 81 327 3.0 10.0 0.00 0.00 0.00 35 1002.7
20260504181605 81 261 2.0 4.0 0.00 0.00 0.00 32 1002.7
20260504180605 80 211 3.0 8.0 0.00 0.00 0.00 36 1002.9
20260504175605 81 304 2.0 10.0 0.00 0.00 0.00 34 1003.0
20260504174605 80 284 0.0 3.0 0.00 0.00 0.00 39 1003.2
20260504173605 79 286 0.0 11.0 0.00 0.00 0.00 36 1003.2
20260504172605 79 280 4.0 8.0 0.00 0.00 0.00 35 1003.3
20260504171605 79 277 1.0 4.0 0.00 0.00 0.00 39 1003.3
20260504170605 77 16 1.0 7.0 0.00 0.00 0.00 41 1003.3
20260504150605 66 20 2.0 3.0 0.00 0.00 0.00 52 1003.5
20260504140605 61 313 0.0 4.0 0.00 0.00 0.00 59 1003.9
20260504130604 54 251 0.0 0.0 0.00 0.00 0.00 69 1003.5
20260504110604 54 223 0.0 0.0 0.00 0.00 0.00 59 1003.4
20260504100604 56 224 0.0 0.0 0.00 0.00 0.00 55 1003.4
20260504081604 54 224 0.0 0.0 0.00 0.00 0.00 63 1005.1
20260504080604 53 224 0.0 0.0 0.00 0.00 0.00 62 1004.9
20260504050603 57 224 0.0 0.0 0.00 0.00 0.00 60 1008.0
20260504045603 57 224 0.0 0.0 0.00 0.00 0.00 60 1008.1
20260504044603 57 224 0.0 0.0 0.00 0.00 0.00 58 1008.1
20260504043603 58 224 0.0 0.0 0.00 0.00 0.00 58 1008.2
20260504042603 58 224 0.0 0.0 0.00 0.00 0.00 57 1008.2
20260504041603 58 224 0.0 0.0 0.00 0.00 0.00 58 1008.2
20260504040603 59 224 0.0 0.0 0.00 0.00 0.00 60 1008.4
20260504035603 60 224 0.0 0.0 0.00 0.00 0.00 55 1008.4
20260504034603 60 224 0.0 0.0 0.00 0.00 0.00 52 1008.5
20260504033603 60 224 0.0 0.0 0.00 0.00 0.00 52 1008.5
20260504032603 60 224 0.0 0.0 0.00 0.00 0.00 52 1008.6
20260504031603 61 224 0.0 0.0 0.00 0.00 0.00 52 1008.7
20260504030603 61 224 0.0 0.0 0.00 0.00 0.00 50 1008.7
20260504025603 61 224 0.0 0.0 0.00 0.00 0.00 49 1008.7